TimeCDT,TemperatureF,Dew PointF,Humidity,Sea Level PressureIn,VisibilityMPH,Wind Direction,Wind SpeedMPH,Gust SpeedMPH,PrecipitationIn,Events,Conditions,WindDirDegrees,DateUTC
12:15 AM,39.2,21.2,49,29.91,10.0,South,19.6,25.3,N/A,,Overcast,170,2014-03-27 05:15:00
12:35 AM,39.2,21.2,49,29.91,10.0,South,18.4,24.2,N/A,,Overcast,170,2014-03-27 05:35:00
12:55 AM,39.2,21.2,49,29.90,10.0,South,18.4,-,N/A,,Overcast,170,2014-03-27 05:55:00
1:15 AM,39.2,23.0,52,29.90,10.0,South,15.0,-,N/A,,Overcast,180,2014-03-27 06:15:00
1:35 AM,39.2,23.0,52,29.90,10.0,South,15.0,-,N/A,,Overcast,170,2014-03-27 06:35:00
1:55 AM,39.2,24.8,56,29.89,10.0,South,21.9,28.8,N/A,,Mostly Cloudy,190,2014-03-27 06:55:00
2:15 AM,37.4,30.2,75,29.89,10.0,South,18.4,-,N/A,,Mostly Cloudy,190,2014-03-27 07:15:00
2:35 AM,37.4,30.2,75,29.87,10.0,South,13.8,24.2,N/A,,Overcast,180,2014-03-27 07:35:00
2:55 AM,35.6,30.2,81,29.86,10.0,South,12.7,-,N/A,,Overcast,170,2014-03-27 07:55:00
3:15 AM,35.6,30.2,81,29.85,10.0,South,13.8,-,N/A,,Overcast,170,2014-03-27 08:15:00
3:35 AM,35.6,30.2,81,29.83,10.0,South,13.8,18.4,N/A,,Overcast,170,2014-03-27 08:35:00
3:55 AM,35.6,30.2,81,29.81,8.0,South,15.0,20.7,0.01,,Overcast,170,2014-03-27 08:55:00
4:15 AM,35.6,32.0,87,29.81,8.0,South,15.0,-,N/A,,Overcast,170,2014-03-27 09:15:00
4:35 AM,35.6,32.0,87,29.80,9.0,South,17.3,-,N/A,,Overcast,170,2014-03-27 09:35:00
4:55 AM,35.6,32.0,87,29.79,7.0,SSE,15.0,20.7,N/A,,Overcast,160,2014-03-27 09:55:00
5:15 AM,35.6,32.0,87,29.78,7.0,South,16.1,23.0,N/A,,Overcast,170,2014-03-27 10:15:00
5:35 AM,35.6,32.0,87,29.78,10.0,South,16.1,24.2,N/A,,Overcast,170,2014-03-27 10:35:00
5:55 AM,35.6,32.0,87,29.77,7.0,South,18.4,-,N/A,,Overcast,170,2014-03-27 10:55:00
6:15 AM,35.6,32.0,87,29.77,8.0,South,17.3,25.3,N/A,,Overcast,170,2014-03-27 11:15:00
6:35 AM,35.6,33.8,93,29.76,6.0,South,16.1,21.9,N/A,,Overcast,170,2014-03-27 11:35:00
6:55 AM,35.6,33.8,93,29.76,7.0,South,17.3,-,N/A,,Overcast,170,2014-03-27 11:55:00
7:15 AM,37.4,33.8,87,29.76,7.0,South,17.3,23.0,N/A,,Overcast,170,2014-03-27 12:15:00
7:35 AM,37.4,33.8,87,29.76,6.0,SSE,13.8,-,N/A,,Overcast,150,2014-03-27 12:35:00
7:55 AM,37.4,33.8,87,29.75,6.0,SSE,16.1,-,N/A,,Overcast,160,2014-03-27 12:55:00
8:15 AM,37.4,33.8,87,29.74,7.0,SSE,15.0,-,N/A,,Overcast,160,2014-03-27 13:15:00
8:35 AM,37.4,33.8,87,29.73,6.0,SSE,13.8,-,N/A,,Overcast,150,2014-03-27 13:35:00
8:55 AM,37.4,33.8,87,29.72,7.0,SSE,15.0,-,N/A,,Overcast,160,2014-03-27 13:55:00
9:15 AM,37.4,33.8,87,29.71,8.0,SSE,15.0,-,N/A,,Overcast,160,2014-03-27 14:15:00
9:35 AM,37.4,33.8,87,29.70,9.0,SSE,13.8,19.6,N/A,,Overcast,160,2014-03-27 14:35:00
9:55 AM,37.4,33.8,87,29.70,10.0,SSE,15.0,-,N/A,,Overcast,160,2014-03-27 14:55:00
10:15 AM,37.4,33.8,87,29.68,10.0,SSE,12.7,-,N/A,,Overcast,160,2014-03-27 15:15:00
10:35 AM,39.2,33.8,81,29.68,10.0,SSE,12.7,-,N/A,,Overcast,160,2014-03-27 15:35:00
10:55 AM,39.2,33.8,81,29.68,10.0,SSE,11.5,-,N/A,,Overcast,160,2014-03-27 15:55:00
11:15 AM,39.2,35.6,87,29.65,10.0,SSE,13.8,-,N/A,,Overcast,160,2014-03-27 16:15:00
11:35 AM,39.2,35.6,87,29.65,10.0,SSE,12.7,-,N/A,,Overcast,160,2014-03-27 16:35:00
11:55 AM,41.0,35.6,81,29.64,10.0,SSE,11.5,-,N/A,,Overcast,160,2014-03-27 16:55:00
12:15 PM,42.8,37.4,81,29.63,10.0,SSE,12.7,-,N/A,,Overcast,150,2014-03-27 17:15:00
12:35 PM,42.8,37.4,81,29.61,10.0,SSE,11.5,-,N/A,,Overcast,150,2014-03-27 17:35:00
12:55 PM,44.6,37.4,76,29.60,10.0,South,12.7,-,N/A,,Overcast,170,2014-03-27 17:55:00
1:15 PM,44.6,37.4,76,29.59,10.0,South,15.0,21.9,N/A,,Overcast,170,2014-03-27 18:15:00
1:35 PM,44.6,39.2,81,29.57,10.0,South,13.8,-,N/A,,Overcast,170,2014-03-27 18:35:00
1:55 PM,44.6,39.2,81,29.56,10.0,South,23.0,26.5,N/A,,Overcast,170,2014-03-27 18:55:00
2:15 PM,44.6,37.4,76,29.54,10.0,South,23.0,31.1,N/A,,Overcast,170,2014-03-27 19:15:00
2:35 PM,46.4,37.4,71,29.53,10.0,South,24.2,28.8,N/A,,Overcast,180,2014-03-27 19:35:00
2:55 PM,46.4,39.2,76,29.52,10.0,South,23.0,27.6,N/A,,Overcast,180,2014-03-27 19:55:00
3:15 PM,46.4,37.4,71,29.52,10.0,South,19.6,28.8,N/A,,Overcast,170,2014-03-27 20:15:00
3:35 PM,46.4,39.2,76,29.51,10.0,South,16.1,-,N/A,,Overcast,180,2014-03-27 20:35:00
3:55 PM,46.4,39.2,76,29.50,10.0,South,19.6,25.3,N/A,,Overcast,180,2014-03-27 20:55:00
4:15 PM,48.2,39.2,71,29.48,10.0,South,20.7,27.6,N/A,,Overcast,180,2014-03-27 21:15:00
4:35 PM,48.2,39.2,71,29.47,10.0,South,24.2,31.1,N/A,,Overcast,180,2014-03-27 21:35:00
4:55 PM,48.2,42.8,82,29.46,10.0,South,24.2,32.2,N/A,,Mostly Cloudy,180,2014-03-27 21:55:00
5:15 PM,48.2,44.6,87,29.44,10.0,South,23.0,32.2,N/A,,Mostly Cloudy,180,2014-03-27 22:15:00
5:35 PM,50.0,44.6,82,29.44,10.0,South,24.2,34.5,N/A,,Scattered Clouds,180,2014-03-27 22:35:00
5:55 PM,51.8,44.6,76,29.43,10.0,South,21.9,31.1,N/A,,Scattered Clouds,170,2014-03-27 22:55:00
6:15 PM,50.0,44.6,82,29.42,10.0,South,21.9,-,N/A,,Partly Cloudy,170,2014-03-27 23:15:00
6:35 PM,50.0,44.6,82,29.42,10.0,South,26.5,29.9,N/A,Thunderstorm,Thunderstorm,180,2014-03-27 23:35:00
6:55 PM,50.0,44.6,82,29.41,10.0,South,23.0,32.2,N/A,Thunderstorm,Overcast,180,2014-03-27 23:55:00
7:15 PM,48.2,42.8,82,29.41,10.0,South,26.5,32.2,N/A,,Mostly Cloudy,180,2014-03-28 00:15:00
7:35 PM,48.2,42.8,82,29.41,10.0,South,25.3,31.1,N/A,,Mostly Cloudy,180,2014-03-28 00:35:00
7:55 PM,48.2,42.8,82,29.41,10.0,South,19.6,28.8,N/A,,Mostly Cloudy,190,2014-03-28 00:55:00
8:15 PM,48.2,44.6,87,29.42,9.0,South,18.4,25.3,N/A,,Mostly Cloudy,190,2014-03-28 01:15:00
8:35 PM,48.2,44.6,87,29.40,10.0,South,18.4,24.2,0.01,,Mostly Cloudy,190,2014-03-28 01:35:00
8:55 PM,48.2,46.4,93,29.40,5.0,South,13.8,25.3,0.05,,Mostly Cloudy,190,2014-03-28 01:55:00
9:15 PM,48.2,44.6,87,29.39,10.0,South,19.6,25.3,N/A,,Overcast,180,2014-03-28 02:15:00
9:35 PM,50.0,46.4,87,29.39,10.0,South,18.4,29.9,N/A,,Overcast,190,2014-03-28 02:35:00
9:55 PM,50.0,46.4,87,29.39,10.0,South,17.3,23.0,N/A,,Overcast,190,2014-03-28 02:55:00
10:15 PM,51.8,46.4,82,29.39,10.0,SSW,19.6,26.5,N/A,,Overcast,200,2014-03-28 03:15:00
10:35 PM,51.8,46.4,82,29.40,10.0,SW,20.7,27.6,N/A,,Overcast,220,2014-03-28 03:35:00
10:55 PM,48.2,42.8,82,29.40,10.0,WSW,28.8,39.1,N/A,,Overcast,240,2014-03-28 03:55:00
11:15 PM,46.4,41.0,81,29.41,8.0,WSW,28.8,34.5,N/A,,Overcast,240,2014-03-28 04:15:00
11:35 PM,44.6,39.2,81,29.43,4.0,WSW,20.7,-,N/A,,Overcast,240,2014-03-28 04:35:00
11:55 PM,42.8,39.2,87,29.43,3.0,SW,20.7,26.5,N/A,,Overcast,230,2014-03-28 04:55:00